C/2024 X1 ( Fazekas )

Japanese version
Home page
Updated on March 11, 2025

---------------------------------------------------------------------

* Profile

Discovery Date December 11, 2024
Magnitude 19.3 mag
Discoverer Jacqueline B. Fazekas (Mt. Lemmon Survey)

* Pictures

* Orbital Elements

Epoch 2025 May 5.0 TT = JDT 2460800.5
T 2025 Aug. 3.58498 TT                                  Pike
q   3.8165453            (2000.0)            P               Q
n   0.03371435     Peri.  124.31274     -0.44501379     -0.89538900
a   9.4898536      Node   352.06516     +0.78022156     -0.37914439
e   0.5978289      Incl.    6.46059     +0.43956462     -0.23351247
P  29.2
From 89 observations 2024 Sept. 5-2025 Feb. 3, mean residual 0".5.

* Magnitudes Graph

        m1 = 11.0 + 5 log d + 10.0 log r

---------------------------------------------------------------------

The orbital elements are published on M.P.E.C. 2025-C143.
The magnitudes graphs are made with Comet for Windows.

---------------------------------------------------------------------

Copyright(C) Seiichi Yoshida (comet@aerith.net). All rights reserved.